Powrót do katalogu

FENGYUN 1C DEB

AktywnySSO
NORAD 29936·DEBRIS·🇨🇳 China

Wystrzelony May 10, 1999 z Taiyuan Satellite Launch Center

Loading…

Następne Przeloty (najbliższe 24 godziny)

TLE

ŚwieżeSource: Space-Track

Epoka: Sep 14, 2026, 05:58 UTC

1 29936U 99025JJ  26257.24901457  .00000227  00000-0  88156-4 0  9991
2 29936  98.6825  16.9253 0114732  92.4234 269.0092 14.35545455 28848

Śledź FENGYUN 1C DEB w czasie rzeczywistym z AllMySat

Download on the App Store